This is the latest recevied weather packets stored in our database for station/object KB9ZGZ. If no packets are shown the sender has not sent any weather packets the latest 10 day(s).
| Time | Temp. | Humidity | Pressure | Rain* | Wind** | Luminosity | Snow |
|---|---|---|---|---|---|---|---|
| 1777716962 | 7.78° C | 83% | 1013.7 hPa | 0.25 mm | - | - | - |
| 1777716047 | 7.78° C | 84% | 1013.5 hPa | 0.25 mm | - | - | - |
| 1777715148 | 7.78° C | 84% | 1013.5 hPa | 0.25 mm | - | - | - |
| 1777714257 | 7.78° C | 84% | 1013.5 hPa | 0.25 mm | - | - | - |
| 1777713345 | 7.78° C | 85% | 1013.5 hPa | 0.25 mm | - | - | - |
| 1777712442 | 7.22° C | 87% | 1013.4 hPa | 0.25 mm | - | - | - |
| 1777711543 | 6.67° C | 90% | 1013.2 hPa | 0.25 mm | - | - | - |
| 1777710640 | 6.67° C | 89% | 1013.2 hPa | 0.25 mm | - | - | - |
| 1777709745 | 6.67° C | 88% | 1013.1 hPa | 0.25 mm | - | - | - |
| 1777708836 | 6.67° C | 88% | 1013.1 hPa | 0.25 mm | - | - | - |
| 1777707944 | 6.67° C | 88% | 1013.2 hPa | 0.25 mm | - | - | - |
| 1777707036 | 6.67° C | 88% | 1013.2 hPa | 0.25 mm | - | - | - |
| 1777706136 | 6.67° C | 88% | 1013.2 hPa | 0 mm | - | - | - |
| 1777705234 | 6.67° C | 87% | 1013.2 hPa | 0 mm | - | - | - |
| 1777704335 | 6.67° C | 87% | 1013.3 hPa | 0 mm | - | - | - |
| 1777703432 | 6.67° C | 87% | 1013.5 hPa | 0 mm | - | - | - |
| 1777702531 | 6.11° C | 85% | 1013.6 hPa | 0 mm | - | - | - |
| 1777701627 | 6.67° C | 84% | 1013.5 hPa | 0 mm | - | - | - |
| 1777700733 | 6.67° C | 83% | 1013.5 hPa | 0 mm | - | - | - |
| 1777699823 | 7.22° C | 82% | 1013.4 hPa | 0 mm | - | - | - |
| 1777698921 | 7.78° C | 80% | 1013.5 hPa | 0 mm | - | - | - |
| 1777698016 | 7.78° C | 78% | 1013.5 hPa | 0 mm | - | - | - |
| 1777697113 | 8.89° C | 77% | 1013.5 hPa | 0 mm | - | - | - |
| 1777696213 | 8.89° C | 74% | 1013.4 hPa | 0 mm | - | - | - |
| 1777695310 | 8.89° C | 74% | 1013.4 hPa | 0 mm | - | - | - |
* Rain since midnight (hover to see other rain measurements)
** Current wind speed in m/s (hover to see current wind gust speed)